Time,TemperatureF,DewpointF,PressureIn,WindDirection,WindDirectionDegrees,WindSpeedMPH,WindSpeedGustMPH,Humidity,HourlyPrecipIn,Conditions,Clouds,dailyrainin,SolarRadiationWatts/m^2,SoftwareType,DateUTC
2013-10-16 00:00:00,64.7,63.2,29.99,NNW,342,0.0,0.0,95,0.00,,,0.00,0,Wunderground v.1.15,2013-10-16 04:00:00,
2013-10-16 00:30:00,64.4,63.2,29.98,NNW,342,0.0,1.0,96,0.00,,,0.00,0,Wunderground v.1.15,2013-10-16 04:30:00,
2013-10-16 01:00:00,64.6,63.4,29.99,NNW,342,0.0,0.0,96,0.00,,,0.00,0,Wunderground v.1.15,2013-10-16 05:00:00,
2013-10-16 01:30:00,64.7,63.2,29.98,NE,34,0.0,0.0,95,0.00,,,0.00,0,Wunderground v.1.15,2013-10-16 05:30:00,
2013-10-16 02:00:00,64.9,63.4,29.99,NNW,327,0.0,0.0,95,0.00,,,0.00,0,Wunderground v.1.15,2013-10-16 06:00:00,
2013-10-16 02:30:00,65.0,63.5,29.98,NNW,329,0.0,0.0,95,0.00,,,0.00,0,Wunderground v.1.15,2013-10-16 06:30:00,
2013-10-16 03:00:00,65.0,63.5,29.97,NNW,332,0.0,0.0,95,0.00,,,0.00,0,Wunderground v.1.15,2013-10-16 07:00:00,
2013-10-16 03:30:00,65.0,63.5,29.97,NNW,344,0.0,0.0,95,0.00,,,0.00,0,Wunderground v.1.15,2013-10-16 07:30:00,
2013-10-16 04:00:00,65.0,63.5,29.96,North,355,0.0,2.0,95,0.00,,,0.00,0,Wunderground v.1.15,2013-10-16 08:00:00,
2013-10-16 04:30:00,64.8,63.3,29.96,WNW,299,0.0,0.0,95,0.00,,,0.00,0,Wunderground v.1.15,2013-10-16 08:30:00,
2013-10-16 05:00:00,64.7,63.5,29.96,NNW,331,0.0,0.0,96,0.00,,,0.00,0,Wunderground v.1.15,2013-10-16 09:00:00,
2013-10-16 05:30:00,64.6,63.4,29.95,NNW,329,0.0,0.0,96,0.00,,,0.00,0,Wunderground v.1.15,2013-10-16 09:30:00,
2013-10-16 06:00:00,64.5,63.6,29.97,North,9,0.0,0.0,97,0.00,,,0.00,0,Wunderground v.1.15,2013-10-16 10:00:00,
2013-10-16 06:30:00,64.5,63.6,29.97,NNW,333,0.0,0.0,97,0.00,,,0.00,0,Wunderground v.1.15,2013-10-16 10:30:00,
2013-10-16 07:00:00,64.5,63.6,29.97,North,360,0.0,0.0,97,0.00,,,0.00,0,Wunderground v.1.15,2013-10-16 11:00:00,
2013-10-16 07:30:00,64.5,63.6,29.97,North,360,0.0,2.0,97,0.00,,,0.00,5,Wunderground v.1.15,2013-10-16 11:30:00,
2013-10-16 08:00:00,64.6,63.4,29.98,North,350,0.0,1.0,96,0.00,,,0.00,19,Wunderground v.1.15,2013-10-16 12:00:00,
2013-10-16 08:30:00,65.0,63.8,29.99,NW,323,0.0,0.0,96,0.00,,,0.00,40,Wunderground v.1.15,2013-10-16 12:30:00,
2013-10-16 09:00:00,65.6,64.1,30.00,North,5,0.0,0.0,95,0.00,,,0.00,69,Wunderground v.1.15,2013-10-16 13:00:00,
2013-10-16 09:30:00,65.9,64.1,30.00,North,355,0.0,0.0,94,0.00,,,0.00,105,Wunderground v.1.15,2013-10-16 13:30:00,
2013-10-16 10:00:00,66.5,64.4,30.00,SSE,155,1.0,1.0,93,0.00,,,0.00,135,Wunderground v.1.15,2013-10-16 14:00:00,
2013-10-16 10:30:00,68.2,65.5,29.99,North,351,1.0,1.0,91,0.00,,,0.01,181,Wunderground v.1.15,2013-10-16 14:30:00,
2013-10-16 11:00:00,70.0,66.3,29.99,WSW,250,0.0,0.0,88,0.00,,,0.01,339,Wunderground v.1.15,2013-10-16 15:00:00,
2013-10-16 11:30:00,70.6,66.2,29.99,WNW,302,0.0,0.0,86,0.00,,,0.01,128,Wunderground v.1.15,2013-10-16 15:30:00,
2013-10-16 12:00:00,70.6,66.2,29.99,NNW,328,0.0,0.0,86,0.00,,,0.01,316,Wunderground v.1.15,2013-10-16 16:00:00,
2013-10-16 12:30:00,71.4,66.7,29.97,North,350,0.0,2.0,85,0.00,,,0.01,274,Wunderground v.1.15,2013-10-16 16:30:00,
2013-10-16 13:00:00,71.9,66.8,29.96,NNW,336,0.0,0.0,84,0.00,,,0.01,214,Wunderground v.1.15,2013-10-16 17:00:00,
2013-10-16 13:30:00,73.3,67.1,29.95,NNW,333,0.0,0.0,81,0.00,,,0.01,330,Wunderground v.1.15,2013-10-16 17:30:00,
2013-10-16 14:00:00,73.4,67.2,29.95,WNW,297,1.0,1.0,81,0.00,,,0.01,225,Wunderground v.1.15,2013-10-16 18:00:00,
2013-10-16 14:30:00,73.2,67.0,29.94,NW,318,0.0,0.0,81,0.00,,,0.01,276,Wunderground v.1.15,2013-10-16 18:30:00,
2013-10-16 15:00:00,73.6,66.7,29.93,North,5,0.0,0.0,79,0.00,,,0.01,195,Wunderground v.1.15,2013-10-16 19:00:00,
2013-10-16 15:30:00,72.8,67.0,29.93,NW,318,0.0,0.0,82,0.00,,,0.02,195,Wunderground v.1.15,2013-10-16 19:30:00,
2013-10-16 16:00:00,72.2,67.1,29.93,WNW,303,0.0,0.0,84,0.00,,,0.02,109,Wunderground v.1.15,2013-10-16 20:00:00,
2013-10-16 16:30:00,71.7,66.3,29.93,North,350,0.0,0.0,83,0.00,,,0.02,77,Wunderground v.1.15,2013-10-16 20:30:00,
2013-10-16 17:00:00,71.5,67.1,29.93,NE,34,0.0,0.0,86,0.00,,,0.02,100,Wunderground v.1.15,2013-10-16 21:00:00,
2013-10-16 17:30:00,71.7,68.0,29.93,NE,34,0.0,0.0,88,0.00,,,0.02,54,Wunderground v.1.15,2013-10-16 21:30:00,
2013-10-16 18:00:00,70.5,66.8,29.93,NE,34,0.0,0.0,88,0.00,,,0.02,26,Wunderground v.1.15,2013-10-16 22:00:00,
2013-10-16 18:30:00,69.3,65.9,29.93,NE,34,0.0,0.0,89,0.00,,,0.02,5,Wunderground v.1.15,2013-10-16 22:30:00,
2013-10-16 19:00:00,68.0,65.6,29.94,NE,34,0.0,0.0,92,0.00,,,0.02,0,Wunderground v.1.15,2013-10-16 23:00:00,
2013-10-16 19:30:00,67.2,65.1,29.94,NE,34,0.0,0.0,93,0.00,,,0.02,0,Wunderground v.1.15,2013-10-16 23:30:00,
2013-10-16 20:00:00,66.5,64.4,29.94,NE,34,0.0,0.0,93,0.00,,,0.02,0,Wunderground v.1.15,2013-10-17 00:00:00,
2013-10-16 20:30:00,66.0,64.2,29.95,NE,34,0.0,0.0,94,0.00,,,0.02,0,Wunderground v.1.15,2013-10-17 00:30:00,
2013-10-16 21:00:00,65.9,64.4,29.96,NE,34,0.0,0.0,95,0.00,,,0.02,0,Wunderground v.1.15,2013-10-17 01:00:00,
2013-10-16 21:30:00,65.6,64.1,29.97,NE,34,0.0,0.0,95,0.00,,,0.02,0,Wunderground v.1.15,2013-10-17 01:30:00,
2013-10-16 22:30:00,62.9,61.4,29.97,NE,34,0.0,0.0,95,0.00,,,0.02,0,Wunderground v.1.15,2013-10-17 02:30:00,
2013-10-16 23:00:00,61.8,60.4,29.95,NE,34,0.0,0.0,95,0.00,,,0.02,0,Wunderground v.1.15,2013-10-17 03:00:00,
2013-10-16 23:30:00,60.6,59.2,29.94,NE,34,0.0,0.0,95,0.00,,,0.02,0,Wunderground v.1.15,2013-10-17 03:30:00,